EW7537 Weather Reports


time (UTC)temp
C
wind
direction
speed
KPH
gust
KPH
rain 1hr
cm
rain 24hr
cm
rain mn
cm
humidity
%
barometer
mb
20260503200204 22 290 1.6 12.9 0.00 0.00 0.00 39 1004.9
20260503195204 22 280 0.0 1.6 0.00 0.00 0.00 39 1005.0
20260503194705 22 248 0.0 1.6 0.00 0.00 0.00 40 1005.0
20260503194205 23 258 0.0 11.3 0.00 0.00 0.00 39 1005.1
20260503193203 23 266 1.6 4.8 0.00 0.00 0.00 39 1005.2
20260503192204 22 280 0.0 1.6 0.00 0.00 0.00 40 1005.4
20260503191704 21 231 0.0 0.0 0.00 0.00 0.00 33 1005.5
20260503191204 22 267 3.2 16.1 0.00 0.00 0.00 40 1005.5
20260503190703 22 255 0.0 1.6 0.00 0.00 0.00 35 1005.5
20260503185703 22 289 1.6 8.0 0.00 0.00 0.00 38 1005.6
20260503185204 22 256 3.2 16.1 0.00 0.00 0.00 39 1005.6
20260503184704 23 271 3.2 4.8 0.00 0.00 0.00 34 1005.6
20260503184204 22 270 0.0 1.6 0.00 0.00 0.00 41 1005.7
20260503183704 21 231 0.0 0.0 0.00 0.00 0.00 43 1005.7
20260503183204 21 247 0.0 1.6 0.00 0.00 0.00 43 1005.7
20260503182704 21 238 0.0 0.0 0.00 0.00 0.00 44 1005.7
20260503181704 21 235 0.0 0.0 0.00 0.00 0.00 41 1006.0
20260503180704 21 194 1.6 16.1 0.00 0.00 0.00 45 1006.1
20260503175703 20 216 1.6 11.3 0.00 0.00 0.00 44 1006.1
20260503175204 20 212 0.0 0.0 0.00 0.00 0.00 32 1006.1
20260503173704 19 194 0.0 0.0 0.00 0.00 0.00 45 1006.1
20260503172704 19 166 0.0 1.6 0.00 0.00 0.00 46 1006.2
20260503171704 20 268 0.0 14.5 0.00 0.00 0.00 44 1006.6
20260503171204 20 270 6.4 16.1 0.00 0.00 0.00 43 1006.6
20260503170704 20 276 0.0 3.2 0.00 0.00 0.00 43 1006.7
20260503170204 18 209 0.0 0.0 0.00 0.00 0.00 47 1006.7
20260503150703 17 211 1.6 8.0 0.00 0.00 0.00 38 1007.6
20260503150204 16 249 4.8 9.7 0.00 0.00 0.00 53 1007.6
20260503140203 13 214 0.0 0.0 0.00 0.00 0.00 61 1008.3
20260503131204 11 190 0.0 0.0 0.00 0.00 0.00 64 1008.9
20260503130705 11 207 0.0 0.0 0.00 0.00 0.00 65 1008.9
20260503120203 9 270 0.0 0.0 0.00 0.00 0.00 55 1009.0
20260503110704 8 228 0.0 0.0 0.00 0.00 0.00 65 1008.9
20260503110206 8 185 0.0 0.0 0.00 0.00 0.00 65 1008.9
20260503090203 9 204 0.0 0.0 0.00 0.00 0.00 63 1010.0
20260503080704 10 266 0.0 0.0 0.00 0.00 0.00 59 1010.8
20260503080204 10 252 0.0 0.0 0.00 0.00 0.00 59 1010.8
20260503072204 10 219 0.0 0.0 0.00 0.00 0.00 62 1011.0
20260503071704 9 239 0.0 0.0 0.00 0.00 0.00 62 1011.0
20260503071203 9 248 0.0 0.0 0.00 0.00 0.00 46 1011.0
20260503070704 9 234 0.0 0.0 0.00 0.00 0.00 63 1011.0
20260503070204 9 221 0.0 0.0 0.00 0.00 0.00 64 1011.0
20260503060204 9 239 0.0 0.0 0.00 0.00 0.00 65 1011.3
20260503054704 9 201 0.0 0.0 0.00 0.00 0.00 63 1011.5
20260503054204 8 192 0.0 0.0 0.00 0.00 0.00 54 1011.5
20260503053704 8 220 0.0 0.0 0.00 0.00 0.00 63 1011.5
20260503053204 8 194 0.0 0.0 0.00 0.00 0.00 56 1011.7
20260503052204 8 215 0.0 0.0 0.00 0.00 0.00 64 1011.8
20260503051703 8 202 0.0 0.0 0.00 0.00 0.00 63 1011.8
20260503051204 8 189 0.0 0.0 0.00 0.00 0.00 63 1011.8
20260503050704 8 180 0.0 0.0 0.00 0.00 0.00 62 1011.6
20260503050204 9 173 0.0 0.0 0.00 0.00 0.00 62 1011.6
20260503045703 9 180 0.0 0.0 0.00 0.00 0.00 47 1011.8
20260503045204 9 189 0.0 0.0 0.00 0.00 0.00 61 1011.8
20260503044704 9 230 0.0 0.0 0.00 0.00 0.00 50 1011.8
20260503044204 9 190 0.0 0.0 0.00 0.00 0.00 61 1011.8
20260503043704 9 203 0.0 0.0 0.00 0.00 0.00 44 1011.8
20260503043204 9 177 0.0 0.0 0.00 0.00 0.00 63 1012.1
20260503042704 8 215 0.0 0.0 0.00 0.00 0.00 46 1012.1
20260503042204 8 206 0.0 0.0 0.00 0.00 0.00 66 1012.2
20260503041704 8 180 0.0 0.0 0.00 0.00 0.00 67 1012.2
20260503041204 8 180 0.0 0.0 0.00 0.00 0.00 67 1012.2
20260503040704 8 174 0.0 0.0 0.00 0.00 0.00 67 1012.2
20260503040204 8 180 0.0 0.0 0.00 0.00 0.00 67 1012.2
20260503035704 8 180 0.0 0.0 0.00 0.00 0.00 68 1012.4
20260503035204 8 180 0.0 0.0 0.00 0.00 0.00 68 1012.4
20260503034204 8 158 0.0 0.0 0.00 0.00 0.00 66 1012.5
20260503033704 8 180 0.0 0.0 0.00 0.00 0.00 65 1012.5
20260503033204 8 180 0.0 0.0 0.00 0.00 0.00 62 1012.7
20260503032704 9 158 0.0 0.0 0.00 0.00 0.00 63 1012.7
20260503031205 9 112 0.0 0.0 0.00 0.00 0.00 61 1012.8
20260503030704 9 180 0.0 0.0 0.00 0.00 0.00 47 1013.0
20260503024704 9 180 0.0 0.0 0.00 0.00 0.00 49 1013.1
20260503023204 9 197 0.0 0.0 0.00 0.00 0.00 60 1013.2
20260503022704 9 180 0.0 0.0 0.00 0.00 0.00 45 1013.2
20260503022204 9 180 0.0 0.0 0.00 0.00 0.00 60 1013.3
20260503021704 9 202 0.0 0.0 0.00 0.00 0.00 59 1013.3
20260503020703 10 180 0.0 0.0 0.00 0.00 0.00 58 1013.2
20260503015704 10 180 0.0 0.0 0.00 0.00 0.00 57 1013.2
20260503015204 10 225 0.0 0.0 0.00 0.00 0.00 57 1013.2
20260503014704 10 196 0.0 0.0 0.00 0.00 0.00 56 1013.2
20260503014204 11 202 0.0 0.0 0.00 0.00 0.00 54 1013.3
20260503013704 11 229 0.0 0.0 0.00 0.00 0.00 53 1013.3
20260503013204 11 210 0.0 0.0 0.00 0.00 0.00 51 1013.4
20260503012205 12 225 0.0 0.0 0.00 0.00 0.00 49 1013.4
20260503011704 12 225 0.0 0.0 0.00 0.00 0.00 49 1013.4
20260503011204 12 202 0.0 0.0 0.00 0.00 0.00 47 1013.4
20260503010704 12 202 0.0 0.0 0.00 0.00 0.00 45 1013.4
20260503010204 13 248 0.0 0.0 0.00 0.00 0.00 44 1013.4
20260503005704 13 270 0.0 0.0 0.00 0.00 0.00 27 1013.5
20260503005204 13 262 0.0 0.0 0.00 0.00 0.00 43 1013.5
20260503004703 13 270 0.0 0.0 0.00 0.00 0.00 43 1013.5
20260503004204 13 244 0.0 0.0 0.00 0.00 0.00 43 1013.4
20260503002704 13 270 0.0 0.0 0.00 0.00 0.00 41 1013.5
20260503002204 14 256 0.0 4.8 0.00 0.00 0.00 40 1013.5
20260503001704 14 242 0.0 0.0 0.00 0.00 0.00 40 1013.6
20260503001204 14 270 0.0 0.0 0.00 0.00 0.00 27 1013.6
20260503000704 14 270 0.0 0.0 0.00 0.00 0.00 38 1013.6
20260503000204 15 257 0.0 0.0 0.00 0.00 0.00 27 1013.6
20260502235704 15 248 0.0 0.0 0.00 0.00 0.00 38 1013.7
20260502235203 15 285 0.0 0.0 0.00 0.00 0.00 29 1013.7
20260502234704 15 270 0.0 0.0 0.00 0.00 0.00 37 1013.7
20260502234204 15 293 0.0 1.6 0.00 0.00 0.00 27 1013.7
20260502233204 16 256 0.0 9.7 0.00 0.00 0.00 35 1013.7
20260502232704 16 270 0.0 0.0 0.00 0.00 0.00 36 1013.7
20260502232203 16 270 0.0 0.0 0.00 0.00 0.00 35 1013.7
20260502231704 16 268 0.0 1.6 0.00 0.00 0.00 27 1013.7
20260502230706 16 250 3.2 14.5 0.00 0.00 0.00 34 1013.7
20260502230204 17 264 0.0 0.0 0.00 0.00 0.00 34 1013.7
20260502225703 17 300 0.0 19.3 0.00 0.00 0.00 34 1013.9
20260502225204 17 300 0.0 1.6 0.00 0.00 0.00 34 1013.9
20260502224704 16 270 0.0 12.9 0.00 0.00 0.00 34 1013.9
20260502224203 17 270 0.0 4.8 0.00 0.00 0.00 34 1014.0
20260502223704 16 256 0.0 0.0 0.00 0.00 0.00 35 1014.0
20260502223203 16 218 0.0 0.0 0.00 0.00 0.00 36 1014.2
20260502222703 15 255 0.0 16.1 0.00 0.00 0.00 26 1014.2
20260502222204 16 263 0.0 1.6 0.00 0.00 0.00 34 1014.1
20260502221703 16 268 0.0 0.0 0.00 0.00 0.00 35 1014.1
20260502221204 16 279 1.6 8.0 0.00 0.00 0.00 35 1014.1
20260502220704 16 284 1.6 9.7 0.00 0.00 0.00 36 1014.2
20260502220204 16 251 3.2 19.3 0.00 0.00 0.00 36 1014.2
20260502215704 16 270 1.6 9.7 0.00 0.00 0.00 34 1014.2
20260502215204 16 270 0.0 0.0 0.00 0.00 0.00 36 1014.2
20260502214705 16 245 0.0 11.3 0.00 0.00 0.00 35 1014.2
20260502214204 16 235 0.0 1.6 0.00 0.00 0.00 37 1014.4
20260502213704 16 206 0.0 0.0 0.00 0.00 0.00 36 1014.4
20260502213203 17 256 0.0 0.0 0.00 0.00 0.00 25 1014.5
20260502212704 16 248 0.0 0.0 0.00 0.00 0.00 36 1014.5
20260502211703 16 356 1.6 3.2 0.00 0.00 0.00 36 1014.7
20260502211203 16 69 0.0 1.6 0.00 0.00 0.00 35 1014.7
20260502210704 17 274 1.6 3.2 0.00 0.00 0.00 35 1014.7
20260502205704 16 262 0.0 0.0 0.00 0.00 0.00 35 1014.9
20260502205204 16 228 0.0 4.8 0.00 0.00 0.00 22 1014.9
20260502204703 17 333 0.0 3.2 0.00 0.00 0.00 34 1014.9
20260502204203 16 270 0.0 1.6 0.00 0.00 0.00 23 1015.1
20260502203704 16 266 0.0 1.6 0.00 0.00 0.00 35 1015.1
20260502203203 17 270 0.0 0.0 0.00 0.00 0.00 32 1015.2
20260502202703 17 270 0.0 1.6 0.00 0.00 0.00 34 1015.2
20260502202204 17 225 0.0 12.9 0.00 0.00 0.00 34 1015.3
20260502201204 16 270 0.0 9.7 0.00 0.00 0.00 34 1015.4
20260502200704 16 219 0.0 24.1 0.00 0.00 0.00 35 1015.6